SCP
0 0 0 0 0 0 0 0 0 0 0 0 0 0 0 0 0 0 0 0 0 0 0 0 0 0 0 0 0 0 0 0 0 0 0 0 0 0 0 0 0 0 0 0 0 0 0 0 0
0 0 0 0 0 0 0 0 0 0 0 0 0 0 0 0 0 0 0 0 0 0 0 0 0 0 0 0 0 0 0 0 0 0 0 0 0 0 0 0 0 0 0 0 0 0 0 0 0
0 0 0 0 0 0 0 0 0 0 0 0 0 0 0 0 0 0 0 0 0 0 0 0 0 0 0 0 0 0 0 0 0 0 0 0 0 0 0 0 0 0 0 0 0 0 0 0 0
0 0 0 0 0 0 0 0 0 0 0 0 0 0 0 0 0 0 0 0 0 0 0 0 1 1 1 0 0 0 0 0 0 0 0 0 0 0 0 0 0 0 0 0 0 0 0 0 0
0 0 0 0 0 0 0 0 0 0 0 0 0 0 0 0 0 0 0 0 0 0 1 1 1 1 1 1 1 1 0 0 0 0 0 0 0 0 0 0 0 0 0 0 0 0 0 0 0
0 0 0 0 0 0 0 0 0 0 0 0 0 0 0 0 0 0 0 0 0 1 1 1 1 1 1 1 1 1 1 1 0 0 0 0 0 0 0 0 0 0 0 0 0 0 0 0 0
0 0 0 0 0 0 0 0 0 0 0 0 0 0 0 0 0 0 0 0 1 1 1 1 1 1 1 1 1 1 1 1 1 0 0 0 0 0 0 0 0 0 0 0 0 0 0 0 0
0 0 0 0 0 0 0 0 0 0 0 0 0 0 0 0 0 0 0 1 1 1 1 1 1 1 1 1 1 1 1 1 1 0 0 0 0 0 0 0 0 0 0 0 0 0 0 0 0
0 0 0 0 0 0 0 0 0 0 0 0 0 0 0 0 0 0 1 1 1 1 1 1 1 1 1 1 1 1 1 1 1 0 0 0 0 0 0 0 0 0 0 0 0 0 0 0 0
0 0 0 0 0 0 0 0 0 0 0 0 0 0 1 1 1 1 1 1 1 1 1 1 1 1 1 1 1 1 1 1 1 0 0 0 0 0 0 0 0 0 0 0 0 0 0 0 0
0 0 0 0 0 0 0 0 0 0 0 0 0 0 1 1 1 1 1 1 1 1 1 1 1 1 1 1 1 1 1 1 1 1 0 0 0 0 0 0 0 0 0 0 0 0 0 0 0
0 0 0 0 0 0 0 0 0 0 0 0 0 1 1 1 1 1 1 1 1 1 1 1 1 1 1 1 1 1 1 1 1 1 1 1 0 0 0 0 0 0 0 0 0 0 1 0 0
0 0 0 0 0 0 0 0 0 0 0 0 0 1 1 1 1 1 1 1 1 1 1 1 1 1 1 1 1 1 1 1 1 0 0 1 0 0 0 0 0 0 0 0 0 0 0 0 0
0 0 0 0 0 0 0 0 0 0 0 1 1 1 1 1 1 1 2 2 2 2 1 1 1 1 1 1 1 1 1 1 1 0 0 0 0 0 0 0 0 0 0 0 0 0 0 0 0
0 0 0 0 0 0 0 0 0 0 1 1 1 1 1 1 1 1 1 2 2 2 1 1 1 1 1 1 1 1 1 1 1 0 0 0 0 0 0 0 0 0 0 0 0 0 0 0 0
0 0 0 0 0 0 0 0 0 1 1 1 1 1 1 1 1 1 1 1 1 1 1 1 1 1 1 1 1 1 1 1 1 1 1 0 0 0 0 0 0 0 0 0 0 0 0 0 0
0 0 0 0 0 0 0 0 0 1 1 1 1 1 1 1 1 1 1 1 1 1 1 1 1 1 0 0 0 1 0 0 0 0 0 0 0 0 0 0 0 0 0 0 0 0 0 0 0
0 0 0 0 0 0 0 0 0 0 0 1 1 1 1 1 1 1 1 1 1 1 1 1 1 1 0 0 0 0 0 0 0 0 0 0 0 0 0 0 0 0 0 0 0 0 0 0 0
0 0 0 0 0 0 0 0 0 0 0 0 0 0 1 1 1 1 1 1 0 1 1 1 0 0 0 0 0 0 0 0 0 0 0 0 0 0 0 0 0 0 0 0 0 0 0 0 0
0 0 0 0 0 0 0 0 0 0 0 0 0 0 0 0 0 0 0 0 0 0 0 0 0 0 0 0 0 0 0 0 0 0 0 0 0 0 0 0 0 0 0 0 0 0 0 0 0
0 0 0 0 0 0 0 0 0 0 0 0 0 0 0 0 0 0 0 0 0 0 0 0 0 0 0 0 0 0 0 0 0 0 0 0 0 0 0 0 0 0 0 0 0 0 0 0 0
0 0 0 0 0 0 0 0 0 0 0 0 0 0 0 0 0 0 0 0 0 0 0 0 0 0 0 0 0 0 0 0 0 0 0 0 0 0 0 0 0 0 0 0 0 0 0 0 0
0 0 0 0 0 0 0 0 0 0 0 0 0 0 0 -0 -0 0 0 0 0 0 0 0 -0 0 0 0 0 0 0 0 0 0 0 0 0 0 0 0 0 0 0 0 0 0 0 0 0
0 0 0 0 0 0 0 0 0 0 0 0 0 0 0 0 0 0 0 0 0 0 0 -0 -0 -0 0 0 0 0 0 0 0 0 0 0 0 0 0 0 0 0 0 0 0 0 0 0 0
0 0 0 0 0 0 0 0 0 0 0 0 0 0 0 0 0 0 0 0 0 0 0 0 0 0 0 0 0 0 0 0 0 0 0 0 0 0 0 0 0 0 0 0 0 0 0 0 0
0 0 0 0 0 0 0 0 0 0 0 0 0 0 0 0 0 0 0 0 0 0 0 0 0 0 0 0 0 0 0 0 0 0 0 0 0 0 0 0 0 0 0 0 0 0 0 0 0
0 0 0 0 0 0 0 0 0 0 0 0 0 0 0 0 0 0 0 0 0 0 0 0 0 0 0 0 0 0 0 0 0 0 0 0 0 0 0 0 0 0 0 0 0 0 0 0 0
0 0 0 0 0 0 0 0 0 0 0 0 0 0 0 0 0 0 0 0 0 0 0 0 0 0 0 0 0 0 0 0 0 0 0 0 0 0 0 0 0 0 0 0 0 0 0 0 0
0 0 0 0 0 0 0 0 0 0 0 0 0 0 0 0 0 0 0 0 0 0 0 0 0 0 0 0 0 0 0 0 0 0 0 0 0 0 0 0 0 0 0 0 0 0 0 0 0
0 0 0 0 0 0 0 0 0 0 0 0 0 0 0 0 0 0 0 0 0 0 0 0 0 0 0 0 0 0 0 0 0 0 0 0 0 0 0 0 0 0 0 0 0 0 0 0 0
Wind_Speed
12 9 4 2 2 2 2 3 2 3 2 1 2 2 3 4 5 4 1 10 15 14 13 16 19 18 18 17 16 16 16 16 15 15 15 15 15 15 14 13 12 12 11 10 9 9 9 8 8
6 6 2 1 2 3 4 3 2 1 2 0 2 3 2 1 1 4 5 8 14 14 11 12 19 19 18 17 16 16 15 15 15 14 14 14 14 14 14 13 12 11 10 10 9 9 9 8 8
6 4 2 2 1 3 5 3 2 1 2 1 2 3 1 2 4 6 6 12 12 12 9 13 21 19 18 17 16 16 15 14 14 14 13 13 13 13 12 12 11 10 10 10 9 9 8 8 8
4 1 2 2 3 5 5 4 1 1 0 2 3 3 1 1 6 7 12 14 14 11 9 12 21 20 19 18 16 16 15 14 14 13 13 13 12 12 12 11 11 10 9 9 9 8 8 8 8
2 3 3 2 5 6 5 4 2 1 1 2 3 2 1 3 7 12 15 15 15 12 9 11 20 20 19 18 17 16 15 15 14 13 13 12 12 12 11 11 11 10 10 10 9 9 9 9 8
4 4 3 2 6 6 5 3 0 1 1 1 4 3 1 2 8 12 13 13 13 13 10 10 20 20 19 18 17 16 15 15 14 14 13 13 12 12 12 11 11 11 11 10 10 10 10 9 9
5 4 3 3 4 6 4 1 2 2 3 3 6 4 2 3 5 10 11 10 9 10 9 7 10 14 18 18 17 16 15 15 14 14 14 13 13 12 12 12 12 12 11 11 11 11 11 11 10
5 4 1 2 3 5 3 2 2 3 4 2 6 6 5 6 9 8 8 8 8 8 8 7 6 7 7 10 15 16 15 15 15 14 14 14 13 13 13 11 11 12 12 12 12 12 12 12 11
4 5 2 4 4 5 4 3 3 1 1 1 3 5 4 14 14 11 8 8 9 10 9 7 6 6 5 5 10 12 14 14 13 12 14 13 6 6 7 10 12 13 13 13 14 14 14 13 12
5 4 7 5 4 5 5 4 3 1 2 3 2 3 10 17 15 14 12 13 13 13 11 8 7 5 5 5 4 3 4 5 5 4 5 4 3 4 7 8 14 14 14 15 15 15 14 11 6
4 6 5 5 5 4 4 3 1 2 4 7 7 7 14 15 13 11 10 9 9 8 8 8 7 5 5 2 2 2 2 2 3 4 4 3 3 3 5 3 6 7 10 7 8 9 6 6 6
2 5 4 5 4 3 3 2 0 3 7 4 2 8 11 12 10 10 9 7 7 6 6 5 5 4 4 3 1 2 2 2 3 4 5 4 3 4 4 4 5 4 3 4 5 4 6 7 7
2 4 4 6 7 4 1 1 1 4 7 5 8 11 10 8 6 5 6 7 8 7 7 6 6 5 3 2 1 2 3 3 4 4 5 6 5 5 5 4 4 5 4 4 4 4 5 5 5
3 5 7 7 5 2 2 2 4 7 6 10 13 11 9 7 6 6 6 7 9 9 9 8 8 6 4 1 1 2 3 4 4 4 5 7 6 5 5 4 4 4 4 4 4 4 4 3 3
2 5 8 5 4 2 4 8 9 11 8 13 13 12 12 10 9 6 4 5 7 8 8 8 7 7 5 4 4 3 3 2 3 3 5 6 6 7 6 4 4 4 3 4 3 3 2 2 2
3 3 5 7 8 5 7 5 11 11 11 13 12 12 12 11 11 9 7 5 5 5 5 5 5 5 4 3 4 3 3 2 2 2 4 6 7 7 5 4 4 4 2 2 2 2 2 2 2
5 4 3 7 9 6 9 5 10 10 12 13 12 12 12 11 11 10 8 6 5 4 4 4 3 2 1 0 2 3 2 2 2 2 3 4 5 6 5 4 4 3 2 2 2 2 2 2 2
2 2 3 3 5 10 10 8 9 11 12 12 11 11 11 12 10 8 8 7 6 5 5 4 2 2 1 1 2 2 2 1 1 2 3 4 4 5 5 4 4 4 3 2 2 2 2 2 2
2 1 2 0 2 8 10 9 9 10 11 11 10 9 9 8 7 8 8 8 7 7 6 4 2 2 1 0 1 1 1 1 1 2 3 3 4 5 5 4 4 4 4 4 4 3 2 1 1
3 1 1 2 4 6 7 8 7 9 8 7 7 7 7 6 7 7 7 7 7 6 5 4 2 2 2 1 1 0 0 1 1 1 2 2 3 4 4 4 4 4 3 4 4 3 2 2 2
1 3 2 3 3 4 5 4 4 5 6 7 7 6 5 5 5 5 5 5 4 5 5 5 3 4 3 2 1 1 1 1 2 2 2 3 3 2 2 2 3 4 4 4 5 4 5 3 2
2 2 2 3 4 1 1 1 1 1 3 4 4 4 4 4 3 3 3 3 3 2 3 3 3 3 3 3 3 4 2 1 2 2 2 4 4 4 3 2 2 2 3 4 4 5 4 4 3
1 3 4 3 4 4 4 3 3 0 1 1 1 1 1 1 1 2 1 1 1 1 1 1 1 2 2 3 4 4 3 1 0 1 3 4 4 4 4 3 2 1 2 3 4 4 5 4 4
3 5 5 5 5 4 2 1 3 2 3 2 2 2 3 2 2 3 3 2 2 2 2 1 1 0 0 2 2 3 3 2 1 1 2 2 2 2 3 4 3 3 2 3 3 4 5 5 5
6 6 6 7 6 2 2 0 4 2 2 3 4 4 4 3 3 4 4 4 5 5 5 4 3 3 3 2 2 3 3 3 2 1 0 1 1 1 2 2 2 2 3 3 3 3 4 6 6
2 6 6 3 3 4 3 2 4 1 1 1 1 2 3 4 4 5 6 6 7 7 7 6 5 5 5 4 4 3 4 3 3 3 3 3 2 3 3 3 3 3 3 3 3 3 4 4 6
2 3 4 6 2 1 3 4 4 0 2 1 1 2 3 4 5 6 7 7 8 8 8 7 7 6 6 6 5 5 5 5 5 5 4 4 4 4 4 4 4 3 3 3 3 3 4 4 5
5 6 5 5 3 2 4 3 3 4 5 3 2 3 4 5 6 6 7 7 7 7 7 6 7 8 8 7 7 6 6 7 6 5 6 6 6 5 5 5 4 4 4 4 3 3 3 4 4
5 5 6 4 4 4 2 4 2 4 3 2 2 3 4 5 6 7 7 6 7 6 6 7 8 8 8 9 8 8 8 8 7 7 8 8 7 6 6 6 5 5 5 4 4 4 4 4 4
3 3 4 3 0 2 2 6 3 2 2 1 2 3 5 6 7 7 7 6 6 7 7 8 8 9 10 9 9 9 9 8 8 9 10 9 8 8 8 7 7 7 7 5 5 6 5 5 5
Wind_Direction
145 140 139 146 84 39 294 266 251 316 342 354 117 133 147 159 183 216 82 141 137 148 158 164 161 157 153 150 149 148 148 147 146 147 149 152 155 157 159 160 160 160 159 156 154 152 149 145 142
142 150 168 116 79 9 298 267 280 264 213 117 86 92 77 143 90 114 130 142 141 146 154 160 163 159 155 153 153 153 153 152 152 153 155 157 160 162 165 166 165 165 164 163 162 161 159 154 151
151 185 129 90 112 209 266 262 231 225 197 150 83 70 111 193 153 159 157 143 138 146 152 164 164 161 158 157 157 158 158 158 159 160 162 164 166 168 170 171 171 173 172 171 171 171 167 165 164
148 111 62 59 271 244 237 261 267 258 98 84 98 76 51 139 160 156 144 145 144 149 154 169 165 164 162 161 162 163 165 166 168 169 171 173 175 177 178 178 180 183 184 183 183 182 180 179 178
88 93 58 349 275 270 260 262 245 277 358 79 111 115 329 21 116 135 146 152 152 153 158 171 167 167 166 166 167 169 172 175 177 179 180 183 184 186 187 188 191 193 195 196 196 196 194 194 195
75 76 83 278 275 281 281 255 223 273 207 141 127 129 240 117 136 149 152 154 156 156 159 169 171 170 170 171 172 175 178 181 185 187 189 192 193 195 196 198 201 203 205 207 209 209 208 207 208
125 119 182 241 280 295 291 302 203 224 228 197 147 143 235 168 162 149 147 143 147 155 157 167 170 173 174 176 178 180 184 187 192 195 198 201 203 205 207 209 212 215 217 219 221 222 222 221 221
139 116 198 263 266 276 287 317 255 207 236 172 143 165 217 180 142 133 128 132 145 157 162 163 162 164 169 177 185 187 191 194 199 203 206 209 212 215 218 218 223 226 227 229 232 233 233 231 231
100 85 218 238 236 266 289 302 293 227 202 202 185 186 179 135 136 135 135 140 160 170 174 167 161 159 159 169 191 193 199 203 206 211 215 216 219 223 230 232 232 236 239 240 240 239 239 237 236
101 153 226 230 225 266 287 259 250 314 270 261 249 109 124 136 149 158 164 169 176 180 181 178 170 159 155 178 186 192 202 208 209 209 221 216 207 221 232 243 243 244 247 249 248 245 243 241 235
157 199 238 261 258 262 270 268 227 148 251 240 225 161 145 151 158 166 172 174 178 173 178 181 178 166 164 170 170 192 204 209 215 214 219 223 216 224 235 238 252 255 258 257 255 252 238 228 224
241 247 245 270 285 296 264 268 323 204 245 272 214 141 147 151 160 169 166 158 148 152 167 160 161 158 169 169 192 213 219 221 228 225 219 219 225 228 229 232 238 240 245 251 249 241 234 229 226
250 267 271 263 282 261 249 253 197 297 300 14 68 96 118 133 142 144 138 141 140 145 148 145 141 143 158 181 207 220 216 221 231 230 221 219 226 234 232 235 237 238 236 239 244 238 235 232 233
264 278 284 282 274 246 122 8 25 333 7 58 71 80 88 97 109 115 131 143 148 150 148 145 145 142 140 169 235 237 228 219 212 222 228 223 224 228 231 236 237 237 233 232 231 230 227 228 226
296 310 319 323 336 321 105 35 9 343 46 65 68 72 71 66 64 71 98 136 147 146 147 149 150 144 149 182 225 238 242 245 226 226 233 229 226 227 224 227 235 233 229 227 220 221 217 228 228
19 18 341 330 354 5 86 51 0 5 65 68 66 67 66 59 54 49 50 66 96 117 130 137 142 140 166 195 222 228 222 225 233 237 237 232 229 226 217 218 228 225 213 204 197 186 189 220 231
25 14 332 335 5 38 73 64 8 17 62 68 65 65 65 58 48 39 40 47 59 81 97 100 96 104 142 232 271 250 229 241 250 245 245 241 235 223 211 217 219 208 197 197 196 180 182 203 225
309 330 331 357 16 60 75 64 30 32 58 65 63 63 63 59 47 38 41 45 49 52 68 71 76 85 53 359 293 286 287 265 251 245 245 243 234 223 209 208 205 191 183 189 185 179 182 196 216
215 231 288 7 103 73 75 66 38 37 49 55 58 59 60 59 50 45 45 46 46 40 42 40 41 56 66 286 298 356 333 312 280 265 251 250 245 227 214 208 193 186 188 192 181 166 172 186 166
182 196 213 79 100 100 94 73 54 46 46 48 56 55 52 52 45 43 45 47 48 41 32 42 41 42 31 333 303 268 295 290 259 289 298 281 261 243 223 207 199 194 187 186 181 167 161 175 165
184 188 204 167 97 88 113 61 40 53 54 53 52 54 52 56 48 33 35 38 43 47 38 36 22 47 37 19 26 18 24 13 12 349 334 323 313 301 288 248 216 201 192 196 196 181 172 178 187
291 271 199 149 118 67 92 117 330 43 30 36 40 40 36 34 31 19 18 12 13 21 56 53 23 44 41 48 66 71 69 51 7 350 357 352 7 16 8 329 260 230 215 211 207 193 183 166 180
212 54 70 83 111 74 32 102 275 328 317 318 17 31 347 356 349 316 300 293 313 339 10 31 21 52 53 72 94 101 99 121 256 20 24 17 9 11 10 1 341 292 249 240 226 202 196 187 179
113 73 53 50 67 57 336 118 270 236 226 220 210 228 252 252 263 281 292 296 291 286 275 260 270 314 70 110 116 128 133 136 94 37 29 8 347 349 357 2 355 335 297 262 246 227 212 207 197
65 74 26 7 14 277 305 158 253 249 221 205 210 232 253 262 267 272 275 274 269 266 256 246 238 242 238 208 187 182 173 168 174 198 239 286 307 307 315 334 326 326 314 289 259 239 235 218 211
63 117 145 198 235 287 343 273 272 267 260 193 204 245 263 264 263 262 260 258 260 261 259 253 245 246 245 236 228 222 211 204 215 216 215 224 233 250 268 278 286 291 300 306 287 253 243 234 228
92 78 139 125 128 338 305 301 317 327 310 291 286 282 273 271 272 269 267 263 261 262 260 256 255 258 257 250 246 243 234 225 228 229 225 230 235 245 251 258 272 279 280 283 291 270 256 242 237
85 127 83 91 115 309 309 307 299 301 292 284 279 278 284 288 286 282 277 272 269 265 265 261 249 249 253 253 249 247 240 236 235 234 236 235 238 239 248 256 260 266 269 267 263 266 269 256 245
18 56 86 95 132 148 284 288 297 290 297 280 267 276 285 286 282 279 278 277 279 278 273 266 257 252 254 252 250 252 251 244 237 234 238 238 238 234 236 242 247 255 260 260 256 256 257 256 259
64 63 121 118 138 129 178 271 329 2 9 10 305 293 289 284 279 280 284 288 288 280 273 266 260 255 254 253 251 249 251 250 245 242 242 238 237 237 234 236 238 244 249 245 242 253 254 247 250